User: anonymous   Login
Location: Bowman Observatory
(41.0326°N, 73.6210°W)
Time: 11:33:11
(UTC-05:00)
Language:

Cosmos 2298 Rocket - Orbit

View from above orbital plane
View from above orbital plane
View from above satellite
View from above satellite

Ground track
Ground track

The orbit data is extracted from the following two-line orbital elements,

1 23432U 94083B   15062.34135405  .00000202  00000-0  82627-4 0  9990
2 23432 074.0332 028.1659 0004087 076.3410 076.0752 14.33357181 56392
Epoch (UTC): 03 March 2015 08:11:32
Eccentricity: 0.0004087
inclination: 74.0332°
perigee height: 777 km
apogee height: 783 km
right ascension of ascending node: 28.1659°
argument of perigee: 76.3410°
revolutions per day: 14.33357181
mean anomaly at epoch: 76.0752°
orbit number at epoch: 5639

The dashed part of the orbit path shows where the satellite is in the earth's shadow,  

DLR